Starlink 32330

operational
NORAD ID: 61850 Int'l Des: 2024-202 Owner: SPXS Country: US Constellation: starlink
LEOCIRCULAR

关于 Starlink 32330

正在加载描述...

实时位置

正在加载3D地球...

即将过境

高度历史

Altitude vs Time

uPlot chart will show altitude changes over time

两行轨道根数

1 61850U 24202F 25353.66865940 .00001077 00000-0 48672-4 0 9998
2 61850 43.0023 329.5475 0001116 251.9074 108.1656 15.27577787 63109
Epoch: Dec 19, 2025 • Age: 18 hours

当前状态

高度 483.9 km
速度 7.62 km/s
星下点 -8.29°S, 87.22°W
发射日期 Nov 7, 2024
运行时间 1.1 years
类型 internet

技术详情

分类 Payload
质量 730.00 kg
干质量 700.00 kg
总质量 730.00 kg
长度 0.30 m
直径 4.10 m
跨度 29.00 m
形状 Box + pan
制造商 SPXS
平台类型 Starlink V2M
阶段状态 In Orbit
所有者/国家 SPXS/US

大型星座

Loading constellations...